Theta_e
329 329 329 330 328 325 326 325 323 324 328 326 321 319 322 320 317 320 322 322 324 328 331 335 338 337 339 344 345 345 346 348 351 354 356 354 354 354 353 355 356 356 357 355 350 346 343 342 342 341 338 334 333 333 332 333 332 330 328 326 326 327 328
329 329 330 329 329 329 325 322 324 328 328 327 325 321 321 320 318 320 322 320 321 322 324 332 337 334 335 340 345 345 345 347 350 353 357 356 356 355 354 355 355 355 355 351 347 345 345 345 344 341 336 334 334 335 334 332 331 331 330 329 328 328 329
328 330 328 326 327 330 327 325 328 328 322 322 324 321 320 319 318 319 320 320 319 319 323 329 334 334 333 338 346 347 345 347 350 353 357 359 357 354 353 354 354 355 351 345 344 344 344 345 343 340 336 335 337 337 334 332 333 332 332 330 326 325 327
328 328 326 323 324 327 328 329 330 328 324 323 324 322 320 318 317 318 318 319 319 322 327 330 330 334 332 335 345 349 346 346 350 352 356 359 359 355 352 353 354 353 348 342 342 343 343 345 344 342 339 338 339 338 333 331 333 331 329 327 324 326 329
326 325 326 325 325 327 326 324 325 325 326 325 324 324 321 320 318 317 318 317 318 326 334 333 331 333 333 334 342 348 349 348 349 354 355 357 358 354 351 352 353 350 345 342 343 343 343 346 345 342 341 339 338 339 336 333 333 333 331 330 328 328 328
321 323 329 330 330 329 327 326 325 325 326 324 321 321 322 322 319 318 319 317 319 328 336 333 331 333 333 334 340 344 349 350 351 354 355 357 358 354 351 351 349 348 346 344 344 343 345 346 344 341 340 338 337 338 338 336 336 336 335 336 334 328 324
325 327 331 330 330 331 330 329 328 328 328 323 319 319 321 321 321 320 320 318 321 335 341 337 338 343 343 343 345 346 347 349 352 354 355 357 358 355 352 350 349 349 347 345 345 346 346 345 344 342 339 338 338 338 337 337 337 335 333 335 336 330 323
330 329 331 330 329 330 328 329 330 329 328 326 325 325 325 322 320 320 320 318 322 338 346 343 344 348 345 345 347 349 348 348 352 355 355 357 358 357 353 351 351 350 349 348 347 346 344 341 341 342 337 336 338 338 337 337 337 335 334 335 336 332 325
324 324 327 326 327 328 327 329 331 328 329 330 329 330 328 323 321 321 320 317 322 337 345 345 343 342 339 339 342 347 350 350 352 354 355 357 359 358 356 353 353 352 351 349 345 342 340 338 339 339 335 333 335 334 336 336 335 336 337 335 336 334 329
319 320 320 321 325 327 327 329 330 330 330 329 327 327 324 320 322 324 321 318 324 336 341 340 338 337 336 337 339 343 348 351 353 356 357 358 361 360 358 356 354 353 352 348 343 340 339 338 339 337 334 332 332 332 335 336 335 335 336 336 335 333 330
320 321 324 327 328 326 323 326 330 330 330 330 329 324 321 323 326 324 324 325 326 330 335 336 335 335 333 335 337 339 347 351 353 357 357 359 361 360 358 356 354 354 353 349 346 342 340 339 338 337 333 332 332 331 333 336 335 334 335 335 332 328 328
327 329 331 332 330 327 325 325 328 329 329 330 328 324 325 331 326 320 329 337 328 327 335 334 333 335 334 334 336 337 345 351 351 354 356 357 359 360 358 356 355 355 352 350 347 344 340 339 338 335 332 331 331 331 333 336 335 334 334 333 330 326 325
331 333 333 332 330 328 329 328 328 329 329 329 328 326 331 335 325 321 335 341 332 332 335 332 333 335 333 333 335 336 341 347 350 352 354 355 356 357 357 356 355 354 352 349 348 345 341 339 338 334 331 331 330 330 332 333 332 333 334 331 328 326 326
330 333 332 331 330 328 328 328 328 330 329 329 330 329 331 334 330 329 337 339 336 336 334 333 334 333 332 335 337 336 337 341 345 350 352 353 354 355 355 355 355 354 352 350 348 344 341 338 337 333 330 329 328 329 331 331 330 330 331 329 325 324 325
328 331 331 330 330 328 327 328 330 330 329 329 330 330 331 333 332 334 335 334 334 334 333 336 335 331 332 334 333 333 336 339 343 347 349 350 351 353 353 353 354 354 352 350 348 344 340 338 336 332 329 328 328 330 334 335 333 331 330 329 326 323 324
324 329 330 329 330 329 326 327 329 330 328 328 329 330 333 332 332 333 332 328 330 332 333 335 334 332 333 333 331 334 339 341 341 343 347 349 349 351 352 352 353 353 351 350 347 343 340 338 334 330 329 329 329 331 334 333 334 335 335 332 327 323 325
323 327 330 328 327 325 322 326 330 329 329 330 329 331 334 334 333 331 328 328 331 332 332 331 331 331 332 333 336 339 341 342 343 344 345 347 349 350 351 352 352 352 351 350 346 342 339 337 333 330 331 331 329 331 333 330 331 335 336 333 328 326 326
322 327 330 328 323 321 323 331 333 331 331 331 330 331 332 333 332 330 329 330 332 331 331 330 330 332 334 337 341 342 338 339 342 344 344 346 348 350 349 350 351 350 352 350 345 341 338 336 334 333 333 331 329 331 333 331 332 333 332 330 329 329 328
324 328 329 323 320 324 330 336 335 333 331 331 331 331 332 331 332 332 331 331 331 331 331 330 332 335 338 338 340 341 338 337 339 342 343 345 347 348 349 349 350 351 352 348 343 340 338 335 335 334 332 331 331 333 333 333 334 332 326 327 330 331 329
326 326 323 321 324 331 336 335 333 333 333 332 330 329 331 332 331 332 332 331 331 331 329 331 337 340 338 338 340 339 335 335 337 340 342 344 345 347 348 348 350 351 349 345 341 339 336 334 335 334 332 332 333 333 333 334 334 331 327 328 331 331 330
327 322 320 324 328 330 332 333 334 333 332 332 331 328 330 333 331 331 332 331 330 330 330 334 340 340 339 338 339 338 334 332 335 338 341 342 343 346 346 348 351 349 345 343 341 337 333 332 332 332 332 333 333 333 333 334 332 331 330 330 330 330 330
327 322 320 323 323 322 327 332 334 333 331 333 333 328 329 332 332 331 331 330 331 330 332 338 342 340 337 333 336 339 336 332 332 336 340 342 343 344 346 348 349 345 342 342 339 334 332 331 331 329 330 334 334 332 332 333 331 331 331 330 330 330 330
326 323 320 321 319 322 328 332 334 334 332 332 331 326 325 329 332 331 329 330 331 329 332 340 343 337 331 329 333 337 335 333 334 335 338 342 343 344 346 348 345 342 342 341 336 332 332 330 329 329 329 333 334 332 330 331 330 330 330 331 330 329 329
324 323 321 320 321 326 333 334 332 332 332 331 329 322 323 329 332 330 328 330 330 328 333 340 340 334 331 331 336 336 333 332 333 333 334 338 340 343 344 344 342 340 341 339 333 332 331 329 329 329 328 331 332 330 330 331 330 329 331 331 330 328 329
322 323 320 320 323 331 335 333 330 331 331 329 324 322 327 330 330 329 329 329 328 330 337 339 334 333 336 335 336 337 334 331 332 333 334 336 338 340 341 340 339 339 337 334 331 331 330 328 329 329 329 330 329 327 328 331 330 330 330 330 329 329 331
322 323 322 320 323 332 333 330 330 330 327 325 325 329 333 331 329 330 330 329 327 330 335 336 333 333 336 335 336 338 335 333 333 334 334 335 336 338 339 338 338 337 334 332 331 331 329 329 329 328 328 329 329 326 326 328 330 331 331 331 330 330 331
323 322 323 321 324 331 332 329 331 330 328 330 335 337 335 331 331 331 329 330 331 332 334 337 338 338 336 337 338 338 335 333 333 333 334 335 335 335 336 335 335 333 332 331 331 332 333 333 330 327 327 328 328 328 326 326 327 329 329 329 328 329 329
325 321 323 326 328 332 330 330 332 332 332 337 338 337 335 333 332 333 332 332 336 338 341 341 340 340 340 340 339 338 336 335 333 333 334 334 333 335 335 335 334 332 331 332 331 331 335 336 331 328 328 328 328 328 327 326 326 326 327 327 327 328 328
329 326 328 332 333 333 331 330 332 332 331 333 334 334 335 333 331 333 334 334 338 341 343 343 341 340 340 341 340 339 338 336 334 332 333 334 333 335 336 336 334 332 331 331 331 331 333 333 330 328 328 328 328 328 328 327 327 326 327 327 329 329 327
331 330 332 331 330 331 331 330 331 331 330 331 332 333 335 334 333 334 334 335 339 340 339 340 340 339 340 341 341 339 336 335 333 333 333 333 334 334 335 334 332 331 331 331 331 330 330 329 328 328 328 328 328 328 328 328 327 327 329 328 329 328 325
327 329 331 331 328 329 331 329 329 329 329 331 332 333 336 336 335 337 336 335 337 338 338 340 339 339 340 340 336 335 334 333 333 333 333 333 333 333 331 331 330 330 330 330 330 330 331 330 329 328 329 328 329 331 332 331 329 329 329 329 328 325 323
327 328 331 330 327 329 330 329 328 327 327 329 330 332 335 335 333 334 336 335 336 337 339 340 339 338 339 335 332 333 334 332 331 332 331 331 331 329 328 328 328 328 329 329 328 329 330 330 327 327 329 331 333 335 336 333 331 330 327 326 326 325 325
328 329 330 328 327 329 329 327 326 324 324 327 330 330 332 334 334 333 334 335 336 337 339 340 340 339 339 335 332 333 334 331 330 330 329 328 328 327 327 326 327 326 326 325 325 325 326 326 325 326 328 331 333 335 335 333 331 329 325 323 323 325 327
327 328 329 328 327 328 329 327 325 323 323 327 330 330 332 334 335 336 336 335 336 337 338 339 338 337 336 334 332 332 335 334 331 328 327 327 326 325 326 325 325 325 324 323 323 323 322 323 324 325 326 327 329 332 332 332 329 325 324 323 323 325 327
325 326 326 326 326 326 326 324 323 323 325 328 329 330 331 332 334 338 339 337 334 335 336 336 335 333 330 330 330 333 334 331 328 326 326 325 324 324 324 323 323 323 322 322 322 322 322 323 323 324 325 325 327 330 331 330 326 325 324 324 324 325 327
324 323 322 322 323 323 323 322 322 324 327 327 327 328 330 331 333 336 338 336 332 330 332 334 334 333 331 329 330 332 330 327 325 325 324 323 323 323 323 323 322 322 323 323 323 323 323 323 323 324 326 327 327 329 330 328 327 327 325 325 325 326 327
320 320 320 321 320 321 322 323 324 326 327 326 325 325 327 329 330 332 337 337 332 329 330 332 332 333 330 328 327 327 326 325 324 324 324 324 323 322 322 323 323 323 323 323 323 323 323 323 324 326 328 328 327 327 327 327 326 326 325 325 326 326 325
Wind_Speed
12 10 6 7 6 4 6 5 6 1 3 3 3 1 1 3 7 4 4 6 6 5 5 6 5 5 6 8 10 12 13 13 15 17 23 26 27 26 25 24 25 25 25 26 27 28 27 25 23 21 18 14 10 9 8 8 9 9 8 8 9 10 10
6 5 8 8 1 2 4 6 7 5 3 3 4 4 3 5 7 3 4 7 7 4 3 5 7 6 6 7 10 12 13 15 16 17 20 23 25 26 25 25 26 25 26 28 28 27 26 24 23 22 18 13 11 10 10 10 10 9 8 8 9 10 10
8 7 9 7 3 3 4 2 7 6 4 5 5 5 5 5 7 4 4 6 6 5 3 3 5 5 4 5 8 10 13 16 18 18 19 21 24 25 24 25 26 26 28 31 29 26 25 24 23 21 17 13 12 12 11 11 10 9 8 8 11 11 11
9 8 9 8 8 6 3 2 7 6 5 3 4 4 4 5 6 6 3 4 5 5 2 1 2 3 4 4 6 8 12 16 18 19 19 21 24 25 25 26 26 27 30 31 28 26 24 24 23 21 17 15 13 12 12 13 12 11 10 10 12 11 10
8 9 9 9 9 10 8 7 8 7 4 2 3 4 3 5 5 5 4 5 4 2 5 1 3 3 3 4 5 7 10 14 17 18 20 21 24 26 26 27 27 28 29 28 26 25 24 23 23 20 17 15 14 12 12 13 12 11 9 10 10 10 10
9 10 8 4 4 7 11 9 9 9 7 5 5 5 4 3 5 5 4 6 5 4 5 3 3 3 4 4 5 6 8 12 15 18 20 21 24 26 28 27 27 28 28 27 26 25 24 24 23 20 17 15 14 13 12 11 10 9 8 9 10 11 11
5 5 5 2 3 3 7 8 9 10 8 8 8 6 4 4 4 4 4 7 4 5 5 4 2 2 2 3 5 5 7 10 13 17 19 21 23 26 29 28 27 27 28 27 26 25 26 25 23 20 18 15 14 13 12 11 10 9 9 9 10 11 12
4 5 5 3 1 3 7 8 9 9 9 10 7 3 2 4 4 4 5 7 3 5 4 2 3 1 4 5 5 6 6 8 12 16 19 20 22 24 27 27 26 26 28 28 28 29 29 27 24 21 18 16 15 14 13 12 11 10 10 10 10 11 12
6 5 5 6 5 6 9 10 11 12 11 9 5 1 2 5 7 6 6 7 2 4 3 2 3 4 6 7 6 6 7 8 10 14 18 20 21 22 25 26 26 27 29 32 35 34 31 28 25 23 20 17 17 16 14 12 11 10 11 11 10 10 11
10 9 8 9 8 8 10 11 12 14 14 12 8 5 5 6 6 7 7 8 4 3 6 4 4 5 6 7 7 7 8 8 8 11 15 19 21 23 26 28 28 29 32 37 39 35 31 28 26 24 20 18 17 17 15 14 12 11 12 11 11 11 10
10 9 7 10 11 11 12 15 16 16 17 16 11 8 7 5 4 6 8 9 10 6 4 4 2 4 6 7 8 9 9 9 9 10 13 16 18 20 23 26 27 28 32 37 38 34 31 28 26 23 21 19 18 17 17 15 14 13 14 13 13 12 11
11 6 4 9 13 14 14 17 17 16 17 16 14 11 7 4 4 7 5 7 11 13 10 8 6 6 8 8 9 10 8 9 10 11 13 16 17 18 21 24 27 29 32 35 36 34 30 28 27 24 21 19 18 18 18 16 15 15 14 14 13 12 11
10 4 4 7 11 12 13 15 16 16 17 16 16 15 10 6 9 9 1 6 9 12 11 11 9 8 10 11 11 11 9 9 11 12 15 16 17 19 21 24 27 29 32 34 35 33 31 29 27 24 21 20 19 19 18 17 16 15 15 15 14 12 12
8 5 6 8 10 11 12 14 14 15 17 17 16 15 11 9 12 10 4 4 8 11 12 11 10 9 10 11 11 13 13 12 11 13 16 17 18 20 22 25 26 28 31 34 35 33 31 29 28 24 22 21 20 19 17 17 17 16 15 15 14 13 12
7 6 7 8 10 11 11 12 12 13 14 14 14 12 8 7 9 8 8 8 9 11 10 7 7 9 9 10 13 16 16 12 11 15 16 17 19 21 23 24 26 27 30 34 35 33 32 30 28 24 22 21 20 18 16 15 15 16 15 15 14 14 13
6 6 8 9 9 10 11 11 11 13 13 11 10 8 7 8 8 7 8 9 8 7 6 5 8 11 12 14 16 16 13 11 12 15 16 17 19 21 23 24 26 27 30 34 36 34 33 31 28 25 23 21 19 18 16 15 14 14 15 15 15 14 13
6 8 9 9 9 10 10 10 12 13 12 10 9 8 7 8 7 7 7 7 6 6 7 8 11 11 12 14 14 12 11 10 11 13 15 16 17 19 22 24 26 29 30 34 37 35 33 31 27 24 22 21 20 19 17 15 15 15 15 15 14 14 13
6 9 9 8 10 10 6 3 7 11 11 11 10 9 9 8 7 7 7 7 7 8 8 9 10 10 12 13 11 12 11 10 10 12 13 14 14 17 20 23 26 28 29 33 36 35 33 29 25 22 21 21 21 19 16 15 16 16 16 15 15 14 13
5 6 7 10 10 7 2 4 2 3 6 9 10 9 9 9 9 9 10 9 8 9 10 10 9 10 11 12 12 12 12 11 11 10 11 12 13 15 18 21 23 24 27 33 36 34 31 26 23 22 21 21 21 19 17 17 17 17 16 15 15 15 14
5 6 9 10 5 3 5 5 4 4 3 6 8 8 9 9 9 9 9 9 8 9 10 8 7 7 9 12 13 11 9 10 10 10 9 9 11 14 16 18 21 24 30 35 36 34 30 25 23 23 21 21 20 19 18 19 18 17 16 15 15 15 14
5 8 10 7 3 3 5 4 5 5 5 6 6 7 7 7 8 8 8 7 7 8 8 5 4 4 6 10 8 5 4 6 6 7 7 7 9 11 13 16 20 25 32 36 34 32 28 24 23 23 21 21 21 20 20 19 19 18 16 16 16 15 14
6 10 10 8 9 9 7 6 8 9 6 4 4 5 6 6 8 7 6 6 7 7 5 4 3 3 6 7 4 5 3 2 4 6 7 7 7 10 13 16 19 25 32 35 32 29 26 22 20 20 21 22 23 22 22 20 19 18 17 17 16 14 13
7 9 10 9 9 8 5 6 7 7 5 5 4 5 7 5 7 6 5 5 7 6 5 5 5 5 7 5 3 6 5 4 5 7 9 8 8 11 14 16 20 26 31 32 29 27 25 23 19 18 22 24 24 23 23 21 19 19 19 18 16 14 14
9 9 10 8 7 3 2 6 8 8 8 6 3 8 6 1 2 3 4 6 7 6 6 6 6 7 6 2 5 7 6 5 7 9 11 11 11 14 15 17 22 26 29 30 28 25 24 22 21 22 24 26 26 25 24 22 21 21 21 18 15 15 14
10 11 10 8 6 1 6 6 8 10 8 4 7 8 3 2 2 2 3 8 8 7 8 8 8 7 3 3 6 8 6 6 9 12 14 14 16 17 18 20 22 25 28 28 25 23 21 19 21 24 26 28 29 28 25 24 23 22 20 17 16 15 15
10 9 8 9 7 2 6 3 6 8 5 7 5 3 5 4 4 2 5 10 11 9 11 12 11 7 5 7 8 8 8 10 13 15 16 18 18 18 19 21 23 27 29 26 23 22 21 20 22 24 25 27 29 29 27 27 25 21 18 17 16 16 16
8 8 8 9 6 2 4 2 4 4 4 4 4 4 4 4 5 6 8 11 12 12 13 13 11 8 7 8 8 8 10 14 17 19 19 20 20 20 21 24 26 27 27 26 23 21 19 21 25 24 21 22 27 29 28 29 26 22 19 20 19 18 18
6 8 6 3 1 5 3 2 1 2 4 6 7 9 9 9 10 10 10 12 13 13 13 11 11 9 8 10 12 12 13 16 20 22 21 20 20 20 19 21 24 26 24 24 24 22 20 21 25 23 19 20 24 27 28 28 27 24 22 23 22 19 19
2 3 2 3 3 3 3 4 4 6 8 9 10 12 13 14 14 12 13 14 13 13 12 10 11 10 10 11 13 14 15 18 20 22 21 20 19 18 16 17 21 23 23 21 22 23 24 23 23 22 20 21 23 24 24 25 26 25 24 23 22 20 20
1 0 4 4 2 3 3 3 4 7 9 9 10 12 13 15 16 16 16 15 13 13 13 11 12 12 11 12 13 15 16 19 20 21 22 20 18 16 15 16 17 18 19 19 20 22 24 24 23 21 20 21 23 22 22 23 25 25 23 21 21 21 19
2 2 2 3 4 3 4 4 5 8 10 11 12 12 13 15 16 15 16 16 15 13 12 12 14 14 14 15 16 17 18 18 18 18 18 17 15 14 14 13 13 14 15 16 16 17 18 18 18 18 19 20 20 19 19 20 21 22 20 19 19 19 16
2 1 3 6 6 2 5 6 8 11 14 16 15 14 14 15 16 15 14 15 14 12 11 14 15 14 14 17 18 17 16 16 15 15 14 14 13 12 11 10 9 9 10 10 10 10 11 13 16 17 17 15 13 14 14 13 14 16 17 16 14 11 9
4 3 3 8 6 7 6 6 12 15 18 19 19 17 15 14 15 14 13 11 10 9 10 13 14 12 12 14 15 14 14 15 15 14 13 11 10 9 9 8 7 7 8 8 9 10 12 14 15 15 13 10 9 10 11 11 13 13 14 14 11 7 7
5 1 4 6 4 5 3 9 14 17 20 20 19 18 16 14 13 13 11 9 8 8 9 11 12 11 11 12 12 11 12 15 15 12 10 10 9 8 7 7 7 8 9 11 12 13 14 14 14 13 13 12 10 9 10 13 14 13 12 13 11 8 8
3 4 6 6 4 8 10 13 16 18 18 18 18 17 16 14 13 12 10 10 11 11 11 11 11 12 13 13 12 11 13 15 14 11 10 10 10 8 8 8 9 10 11 12 13 13 13 13 13 13 13 13 10 9 11 15 14 12 13 14 12 9 8
4 6 7 6 7 10 14 18 19 16 13 15 17 17 15 14 13 12 12 12 13 15 15 14 11 11 13 13 12 11 13 14 12 9 9 10 8 8 9 9 10 11 12 12 11 10 10 10 10 10 9 9 9 8 11 13 12 12 14 13 10 8 9
7 10 11 11 10 11 14 17 16 11 10 15 18 17 17 16 14 11 12 13 14 15 16 16 14 12 12 13 13 14 13 12 11 10 10 9 9 9 9 10 11 11 11 9 8 8 7 7 8 7 6 7 8 9 10 12 13 13 12 10 7 7 8
Wind_Direction
182 192 162 175 216 194 165 202 214 186 355 258 232 271 288 280 275 238 192 236 241 246 248 204 195 236 231 213 212 215 218 215 210 211 209 203 197 192 190 188 188 188 190 191 192 194 196 195 194 199 208 214 217 229 245 256 268 290 305 303 304 306 310
150 178 156 151 235 235 190 207 179 117 42 268 244 249 213 228 258 240 192 245 249 233 227 174 181 230 236 217 215 214 213 212 210 210 208 203 197 190 187 186 186 187 190 194 194 193 194 192 193 201 208 209 211 221 237 252 266 283 293 296 300 301 305
138 166 176 160 166 215 268 232 152 159 225 208 199 242 256 253 271 270 207 230 252 239 218 156 185 233 255 222 208 209 209 208 209 207 201 198 193 187 184 185 187 188 191 196 195 191 191 190 193 201 204 203 206 218 237 251 260 273 281 286 293 299 303
151 170 197 200 182 178 254 237 172 202 252 228 196 228 270 278 280 286 243 210 235 222 172 98 237 263 280 235 201 206 212 209 208 204 196 192 189 186 185 186 187 189 192 196 194 190 188 189 193 197 197 197 200 214 238 251 258 272 282 284 289 295 298
170 187 200 215 204 182 196 212 198 197 207 243 245 224 249 273 278 288 276 260 270 117 117 216 262 254 258 240 214 213 214 210 205 200 195 191 188 188 188 189 190 190 191 192 192 190 188 188 193 194 192 196 198 208 232 248 257 270 277 275 280 288 294
201 199 185 221 255 201 199 207 208 204 196 210 238 222 205 232 265 278 282 282 295 95 130 206 245 242 232 226 229 220 210 208 202 196 194 191 189 190 191 193 192 189 188 190 191 191 188 187 191 192 192 195 199 206 222 236 244 256 260 257 268 284 296
187 147 122 60 331 247 220 221 223 219 206 213 237 242 196 189 236 261 274 280 282 112 131 181 201 262 258 245 257 244 215 203 197 195 194 191 191 192 194 195 193 189 188 188 189 188 187 188 189 189 192 195 200 208 220 230 238 248 253 250 258 279 296
128 108 110 134 198 233 227 223 229 235 227 227 245 267 183 203 226 230 249 266 262 107 113 149 149 229 257 247 256 256 234 206 194 194 193 191 192 193 194 195 192 189 185 184 187 190 192 195 191 191 198 202 205 212 220 229 240 246 249 250 253 270 291
180 175 174 177 185 212 225 222 221 230 234 234 237 163 176 234 241 238 257 276 272 116 126 172 161 197 231 232 238 248 242 224 202 195 192 190 189 189 190 190 187 185 184 190 197 199 198 199 196 198 207 212 215 222 225 229 238 243 245 251 253 263 281
200 205 209 202 197 203 222 226 216 214 219 220 218 210 221 235 230 225 245 272 291 122 147 177 175 195 224 233 241 240 233 232 218 201 195 191 189 188 186 185 184 183 188 199 204 201 198 199 199 201 209 215 219 228 231 230 235 240 245 250 252 261 272
220 224 216 205 211 209 211 215 209 207 213 215 218 232 239 219 193 218 227 247 274 270 223 231 243 243 251 252 255 249 230 224 217 204 201 195 193 191 186 185 185 184 192 203 204 199 196 199 200 203 210 215 219 228 233 233 237 244 250 252 255 264 269
235 245 203 196 218 224 218 215 211 208 209 210 215 229 231 185 209 247 214 202 254 271 276 292 298 278 276 276 271 268 252 228 216 208 204 200 198 195 189 189 189 190 197 203 201 197 196 198 200 203 210 215 220 228 231 234 240 247 252 252 256 265 269
225 227 200 203 224 233 230 225 215 205 202 205 215 224 221 210 245 267 171 164 243 271 286 297 300 292 285 283 282 285 276 249 226 211 206 204 200 195 193 194 194 195 201 201 197 195 196 198 200 203 208 214 220 225 229 236 243 246 250 253 257 261 262
207 191 202 211 222 228 231 229 214 202 201 204 213 225 224 227 251 267 255 220 256 278 289 294 295 292 285 284 286 282 273 261 237 219 213 209 203 199 198 197 195 197 203 202 197 195 196 199 200 202 208 215 218 220 227 237 246 249 250 253 258 259 257
194 182 192 201 215 219 216 217 206 197 200 202 212 226 220 218 242 259 265 267 270 276 282 280 281 285 278 272 272 270 271 269 248 232 224 215 209 205 201 198 195 196 202 202 197 194 196 200 201 203 209 214 215 218 223 231 241 249 249 250 257 258 256
196 177 189 191 201 209 205 200 193 191 197 202 212 219 208 217 238 245 254 264 269 283 296 291 288 289 276 264 263 263 270 276 261 246 237 226 217 208 202 197 194 194 198 199 195 194 197 200 200 203 208 211 212 216 221 227 235 239 240 246 255 257 255
192 169 190 189 189 209 214 201 195 197 203 211 215 214 209 221 240 247 254 266 290 320 315 293 288 289 283 276 270 264 272 277 265 252 242 234 223 212 204 197 194 195 195 195 194 194 197 199 199 201 205 209 213 216 222 231 234 231 233 242 250 251 254
193 163 177 195 208 225 229 197 203 209 213 219 223 225 219 212 220 244 266 279 294 300 289 278 281 289 294 292 277 266 268 265 256 252 245 237 226 215 207 199 197 196 191 189 192 195 196 195 194 198 203 211 217 217 221 228 230 230 236 242 244 245 252
214 159 180 219 233 229 145 92 122 188 212 223 231 236 227 218 222 237 256 269 275 276 275 276 281 288 296 293 276 264 261 253 249 249 242 234 224 213 207 203 199 193 186 186 191 193 191 188 190 198 207 215 217 216 219 223 225 232 240 240 238 241 248
204 188 212 230 234 127 119 118 103 97 150 201 220 235 229 225 231 237 251 267 270 272 275 277 279 287 294 286 272 260 258 255 250 245 239 230 219 212 208 201 194 190 188 189 190 190 187 186 191 202 212 217 216 216 219 221 224 230 236 236 235 239 246
215 225 229 229 215 159 154 160 165 176 191 191 213 250 245 228 239 250 261 267 265 270 274 266 264 280 284 274 256 232 250 259 239 229 224 214 208 206 200 194 193 194 193 192 190 186 183 189 201 211 217 216 214 217 219 220 224 228 230 232 234 237 245
223 240 239 234 241 237 225 214 196 193 206 189 194 262 263 236 242 257 265 256 251 258 255 229 214 232 259 258 205 158 194 219 191 195 191 186 190 186 183 186 192 197 196 192 187 182 186 200 212 217 220 216 214 218 220 221 226 227 226 231 233 238 248
220 239 242 235 245 253 236 195 169 165 173 140 138 253 260 234 228 238 241 241 246 250 237 206 188 214 254 262 139 138 167 176 180 182 166 160 168 171 175 182 187 192 194 189 183 183 197 213 217 217 219 215 214 220 222 223 228 228 227 229 230 237 250
224 233 245 246 252 265 109 122 128 137 143 134 198 254 256 147 167 221 238 248 253 248 229 202 201 233 268 332 112 142 159 172 187 181 163 161 165 163 169 179 183 186 186 183 185 195 207 214 216 220 222 218 218 224 224 224 228 227 226 226 228 238 251
225 227 241 248 244 120 89 112 131 131 139 187 247 261 299 356 290 247 260 267 268 250 220 209 223 241 238 121 142 154 158 179 188 177 166 165 163 161 169 178 180 181 182 185 196 208 210 209 214 222 225 223 224 227 226 225 227 226 226 229 235 242 247
233 229 239 246 240 106 80 114 136 136 189 245 262 331 351 320 288 280 272 274 277 257 227 224 239 238 177 152 154 153 168 185 179 168 164 161 158 163 172 175 176 179 185 195 208 213 211 213 218 224 229 230 230 229 229 230 229 227 230 235 238 241 243
239 233 234 244 245 92 86 141 142 159 244 293 9 354 326 328 332 317 285 275 275 262 241 230 232 220 179 164 156 154 177 182 169 161 160 159 159 167 174 177 179 184 194 205 212 214 215 219 222 228 238 242 236 232 235 237 234 232 237 239 239 241 244
240 243 238 229 108 67 40 296 285 278 301 340 343 314 311 322 319 306 292 283 277 267 252 230 215 203 182 169 161 158 168 170 162 159 160 163 169 175 178 184 188 194 203 210 214 218 220 223 229 238 251 255 246 241 243 243 239 241 246 242 239 243 247
241 274 19 83 92 51 355 326 340 334 323 326 318 305 302 296 287 283 285 285 279 270 259 230 203 196 185 173 164 159 159 160 162 163 166 172 178 179 182 192 198 203 210 216 221 225 226 230 241 249 255 257 255 253 252 247 245 249 248 242 241 247 252
194 11 57 63 35 20 27 25 9 348 334 333 325 309 294 285 279 274 274 276 272 268 259 228 199 192 181 166 160 160 163 167 171 174 177 180 184 185 190 199 206 211 215 220 227 233 236 242 251 255 257 262 263 261 258 255 253 252 247 244 246 249 254
229 228 108 40 351 23 60 55 36 9 348 340 331 312 295 288 283 276 271 271 266 259 245 214 194 184 171 165 167 170 174 176 177 180 184 186 189 191 195 200 205 211 218 225 233 242 248 254 261 265 269 274 274 266 257 254 252 248 245 247 246 247 254
255 200 82 8 324 200 114 58 30 11 352 340 331 317 300 290 285 278 270 264 256 242 219 197 186 176 170 171 172 172 174 177 176 178 181 182 184 187 190 194 200 209 221 232 242 252 261 265 269 271 272 275 273 260 248 239 236 238 239 237 235 241 251
234 189 62 353 302 203 153 35 9 359 347 337 329 320 309 295 286 277 264 248 233 217 198 186 180 172 164 167 172 172 171 170 170 170 170 173 180 188 194 203 213 221 230 241 250 258 264 268 271 273 274 271 261 250 239 221 213 219 227 230 236 250 253
236 205 37 10 315 239 274 346 347 343 340 337 332 325 316 303 291 277 254 222 197 190 183 177 174 167 158 166 179 178 166 163 166 170 178 188 197 202 208 216 226 235 244 249 253 258 264 269 272 274 274 271 262 249 234 221 217 222 236 249 263 266 255
290 21 33 26 337 301 307 323 329 330 333 338 338 333 321 307 296 280 247 203 176 171 174 170 170 174 177 182 186 179 171 171 175 182 196 204 207 211 219 230 238 245 248 249 250 252 256 260 262 264 266 267 263 249 237 233 234 242 255 268 278 269 251
313 334 347 345 321 302 303 311 317 321 329 337 338 335 327 313 300 282 254 219 190 180 181 178 175 183 189 188 183 178 176 177 183 197 207 208 210 216 227 236 242 243 242 242 244 247 250 256 261 262 262 263 263 255 249 250 254 261 269 277 280 264 248
309 313 319 316 306 298 298 303 308 313 327 334 331 329 325 316 302 283 260 235 210 195 193 189 183 183 188 189 190 190 189 192 207 219 216 212 217 224 231 237 238 237 238 240 246 255 262 266 267 264 258 258 259 256 256 260 265 268 271 270 257 245 245